www.pogodaiklimat.ru

Погода и климат >> Архив погоды >> Великобритания >> Тири


ПОГОДА на Тири

  • Прогноз погоды на Тири
  • Монитор погоды на Тири

АРХИВ ПОГОДЫ на Тири

Время (UTC), дата Ветер
(напр.,м/с)
 
Видим.   Явления Облачность Т
(С)
Тd
(С)
f
(%)
Тe
(С)
Тes
(С)
Комфортность P
(гПа)
Po
(гПа)
Тmin
(С)
Tmax
(С)
R
(мм)
R24
(мм)
S
(см)
01 13.09 З 8 20 км н/о +11.8 +7.8 76 +9 +9 1029.0 1027.4
02 13.09 З 6 17 км н/о +11.5 +7.5 76 +9 +9 1029.3 1027.7
03 13.09 З 6 17 км н/о +11.5 +7.6 77 +9 +9 1029.7 1028.1
04 13.09 З 7 17 км н/о +11.6 +7.5 76 +9 +9 1030.4 1028.8
05 13.09 З 6 15 км н/о +11.0 +7.7 80 +8 +8 1030.8 1029.2
06 13.09 З 6 17 км н/о +11.5 +7.6 77 +9 +9 1031.4 1029.8 +10.9 0.2
07 13.09 З 5 20 км н/о +11.7 +8.4 80 +9 +9 1031.9 1030.3
08 13.09 З 7 17 км н/о +13.4 +8.6 73 +11 +11 1032.2 1030.7
09 13.09 З 10 15 км н/о +13.5 +8.7 73 +11 +11 1033.2 1031.6
10 13.09 З 9 18 км н/о +14.4 +9.5 72 +12 +12 1033.4 1031.8
11 13.09 З 9
{13}
12 км н/о +14.7 +8.7 67 +12 +12 1033.8 1032.2
12 13.09 З 9 16 км н/о +15.2 +9.7 70 +13 +13 1034.2 1032.6
13 13.09 ЮЗ 9
{14}
15 км в посл. час дождь н/о +15.3 +10.4 73 +13 +13 1034.4 1032.8
14 13.09 ЮЗ 9
{13}
21 км н/о +14.7 +9.9 73 +12 +12 1034.1 1032.5
15 13.09 З 9 14 км н/о +14.8 +9.8 72 +13 +13 1033.9 1032.3
16 13.09 ЮЗ 9 17 км н/о +14.6 +10.4 76 +12 +12 1033.9 1032.3
17 13.09 ЮЗ 8 15 км н/о +13.8 +10.6 81 +11 +11 1033.9 1032.3
18 13.09 ЮЗ 7 14 км н/о +13.1 +10.5 84 +11 +11 1033.6 1032.0 +15.6 0.0
19 13.09 ЮЗ 6 15 км н/о +12.8 +10.8 88 +10 +10 1033.6 1032.0
20 13.09 ЮЗ 5 14 км н/о +12.5 +10.8 89 +10 +10 1033.5 1031.9
21 13.09 ЮЗ 6 17 км н/о +12.7 +10.7 88 +10 +10 1033.4 1031.8
22 13.09 ЮЗ 5 18 км н/о +12.3 +10.3 88 +10 +10 1032.9 1031.3
23 13.09 ЮЗ 5 19 км н/о +12.2 +10.2 88 +10 +10 1032.8 1031.2
00 14.09 ЮЗ 7 21 км н/о +12.8 +10.1 84 +10 +10 1031.8 1030.2
01 14.09 Ю 8 24 км н/о +13.1 +10.2 83 +10 +10 1030.8 1029.2
02 14.09 Ю 9
{13}
16 км слаб. ливневой дождь н/о +13.1 +11.0 87 +10 +10 1029.1 1027.6
03 14.09 Ю 10
{13}
19 км в посл. час дождь н/о +13.4 +10.7 84 +10 +10 1028.1 1026.5
04 14.09 Ю 10
{14}
11 км дым н/о +13.0 +10.1 83 +10 +10 1026.7 1025.1
05 14.09 Ю 12
{16}
17 км в посл. час дождь н/о +13.3 +9.9 80 +10 +10 1025.3 1023.7
06 14.09 Ю 11
{17}
16 км в посл. час дождь н/о +13.3 +10.3 82 +10 +10 1024.5 1022.9 +11.7 0.2
07 14.09 ЮЗ 12-17
{17}
4600 м ливневой дождь н/о +12.4 +11.0 91 +8 +8 1024.0 1022.4
08 14.09 ЮЗ 12
{16}
13 км в посл. час дождь н/о +13.6 +11.2 85 +10 +10 1023.4 1021.8
09 14.09 ЮЗ 13-19
{19}
11 км н/о +13.9 +11.4 85 +10 +10 1022.8 1021.3
10 14.09 ЮЗ 14-22
{22}
11 км н/о +14.2 +11.8 85 +11 +11 1022.2 1020.6
11 14.09 ЮЗ 14
{20}
10 км н/о +14.3 +12.0 86 +11 +11 1021.4 1019.8
12 14.09 ЮЗ 14-20
{20}
10 км дым н/о +14.6 +12.4 87 +11 +11 1020.4 1018.9 1
13 14.09 ЮЗ 13
{21}
4000 м в посл. час дождь н/о +14.2 +13.3 94 +11 +11 1019.9 1018.3
14 14.09 ЮЗ 14-20
{20}
4900 м в посл. час дождь н/о +14.4 +13.6 95 +11 +11 1019.0 1017.5
15 14.09 ЮЗ 13-19
{21}
3100 м слаб. ливневой дождь н/о +14.1 +13.7 97 +11 +11 1018.0 1016.4
16 14.09 ЮЗ 14-20
{20}
3500 м слаб. морось н/о +14.2 +13.9 98 +11 +11 1017.4 1015.9
17 14.09 ЮЗ 13
{20}
2700 м в посл. час морось н/о +14.2 +13.9 98 +11 +11 1017.5 1015.9
18 14.09 З 9
{17}
2500 м в посл. час дождь н/о +13.4 +13.1 98 +10 +10 1017.9 1016.3 +14.6 8
19 14.09 З 7
{13}
4100 м в посл. час дождь н/о +12.5 +11.9 96 +9 +9 1018.3 1016.7
20 14.09 З 8
{13}
8000 м в посл. час дождь н/о +12.4 +11.5 94 +9 +9 1018.6 1017.0
21 14.09 З 8
{13}
10 км н/о +12.8 +10.4 85 +10 +10 1019.2 1017.6
22 14.09 З 9
{13}
12 км н/о +12.6 +9.3 80 +9 +9 1019.6 1018.0
23 14.09 З 9
{14}
12 км н/о +12.7 +9.2 79 +9 +9 1019.8 1018.3
00 15.09 З 9
{14}
12 км н/о +11.9 +6.9 71 +8 +8 1019.9 1018.3 1
01 15.09 З 9 10 км н/о +11.9 +7.6 75 +9 +9 1020.5 1018.9
02 15.09 З 9
{13}
13 км н/о +11.7 +6.3 69 +8 +8 1020.8 1019.3
03 15.09 З 10
{13}
15 км н/о +11.1 +5.2 67 +7 +7 1021.0 1019.4
04 15.09 СЗ 7
{13}
12 км н/о +11.4 +6.9 74 +8 +8 1020.9 1019.3
05 15.09 З 9 14 км н/о +11.2 +5.1 66 +8 +8 1021.3 1019.7
06 15.09 З 8 14 км н/о +11.3 +5.3 67 +8 +8 1021.4 1019.8 +10.9 1
07 15.09 З 6 12 км н/о +11.1 +6.1 71 +8 +8 1021.6 1020.0
08 15.09 З 7 12 км н/о +11.5 +6.0 69 +8 +8 1022.0 1020.4
09 15.09 З 7 13 км н/о +12.0 +6.8 70 +9 +9 1022.4 1020.8
10 15.09 З 6 15 км н/о +12.4 +6.7 68 +10 +10 1022.7 1021.1
11 15.09 З 8 18 км н/о +12.7 +6.5 66 +10 +10 1023.2 1021.6
12 15.09 СЗ 6 14 км н/о +12.9 +6.4 65 +11 +11 1023.2 1021.7
13 15.09 З 7 17 км н/о +13.9 +6.9 63 +12 +12 1023.1 1021.5
14 15.09 З 6 17 км н/о +13.5 +6.5 63 +12 +12 1023.1 1021.5
15 15.09 З 6 19 км н/о +14.1 +7.4 64 +12 +12 1023.1 1021.5
16 15.09 З 5 20 км н/о +13.6 +7.1 65 +12 +12 1022.8 1021.2
17 15.09 З 5 15 км н/о +13.1 +7.3 68 +11 +11 1022.6 1021.0
18 15.09 З 4 18 км н/о +11.6 +7.0 73 +10 +10 1022.5 1020.9 +14.4
19 15.09 З 3 15 км н/о +8.7 +5.5 80 +6 +6 1022.6 1021.0
20 15.09 З 3 16 км н/о +7.9 +5.8 87 +5 +5 1022.7 1021.1
21 15.09 З 3 13 км н/о +7.6 +5.9 89 +5 +5 1023.0 1021.3
22 15.09 СЗ 5 6000 м в посл. час дождь н/о +10.6 +9.4 92 +8 +8 1022.8 1021.2
23 15.09 З 5 18 км в посл. час дождь н/о +10.9 +9.4 90 +8 +8 1022.9 1021.3
00 16.09 З 4 20 км в посл. час дождь н/о +10.8 +8.9 88 +8 +8 1022.5 1020.9 0.0
01 16.09 З 3 30 км н/о +10.4 +8.1 86 +8 +8 1022.5 1020.9
02 16.09 З 4 30 км н/о +11.1 +7.8 80 +9 +9 1022.5 1020.9
03 16.09 З 4 25 км н/о +9.3 +5.7 78 +6 +6 1022.2 1020.6
04 16.09 З 4 29 км н/о +10.3 +7.5 83 +8 +8 1022.0 1020.4
05 16.09 З 3 30 км н/о +10.2 +7.0 81 +8 +8 1021.7 1020.1
06 16.09 З 5 25 км н/о +11.0 +9.0 87 +8 +8 1021.7 1020.1 +7.3 0.0
07 16.09 З 5 35 км н/о +11.5 +7.6 77 +9 +9 1021.8 1020.3
08 16.09 З 4 20 км н/о +12.6 +9.0 79 +11 +11 1022.3 1020.7
09 16.09 З 7 25 км н/о +11.9 +7.9 76 +9 +9 1022.8 1021.2
10 16.09 З 7
{13}
30 км н/о +13.8 +7.4 65 +12 +12 1022.9 1021.3
11 16.09 СЗ 7 24 км н/о +12.7 +8.8 77 +10 +10 1023.1 1021.5
12 16.09 З 9 18 км н/о +12.3 +7.5 72 +9 +9 1023.6 1022.0
13 16.09 З 8 27 км н/о +14.8 +9.9 72 +13 +13 1023.5 1021.9
14 16.09 З 8 25 км н/о +14.2 +9.5 73 +12 +12 1023.5 1021.9
15 16.09 З 8 23 км н/о +14.1 +8.6 69 +12 +12 1023.4 1021.9
16 16.09 З 7 26 км н/о +13.9 +8.3 69 +12 +12 1023.6 1022.0
17 16.09 З 8 20 км н/о +13.1 +8.6 74 +10 +10 1023.8 1022.2
18 16.09 З 7 23 км н/о +12.3 +8.2 76 +9 +9 1023.6 1022.0 +14.8
19 16.09 З 7 22 км н/о +11.7 +8.2 79 +9 +9 1023.8 1022.2
20 16.09 СЗ 7 19 км н/о +12.0 +8.5 79 +9 +9 1024.1 1022.5
21 16.09 З 7 18 км н/о +12.2 +8.6 79 +9 +9 1024.3 1022.8
22 16.09 СЗ 7
{13}
19 км в посл. час дождь н/о +11.4 +7.9 79 +8 +8 1024.5 1022.9
23 16.09 СЗ 8 20 км н/о +10.9 +6.9 76 +7 +7 1024.6 1023.0
00 17.09 СЗ 7 18 км н/о +11.6 +7.4 75 +9 +9 1024.6 1023.0 0.2
01 17.09 СЗ 5 16 км н/о +11.8 +8.0 78 +9 +9 1024.5 1022.9
02 17.09 СЗ 7 29 км в посл. час дождь н/о +11.1 +8.4 83 +8 +8 1025.0 1023.4
03 17.09 СЗ 7 11 км слаб. ливневой дождь н/о +10.8 +8.3 85 +7 +7 1025.0 1023.4
04 17.09 СЗ 7 18 км в посл. час дождь н/о +10.4 +7.0 79 +7 +7 1025.2 1023.6
05 17.09 СЗ 6 19 км н/о +10.0 +5.6 74 +7 +7 1025.3 1023.7
06 17.09 СЗ 5 18 км н/о +10.0 +5.5 74 +7 +7 1025.5 1023.9 +9.7 0.2
07 17.09 С 5 18 км н/о +11.2 +7.2 76 +9 +9 1026.3 1024.7
08 17.09 С 5 22 км в посл. час дождь н/о +11.9 +6.8 71 +10 +10 1026.7 1025.1
09 17.09 С 5 19 км н/о +12.6 +6.3 65 +11 +11 1027.4 1025.8
10 17.09 С 5 21 км н/о +13.1 +6.2 63 +11 +11 1027.8 1026.2
11 17.09 СЗ 4 18 км н/о +13.4 +6.2 62 +12 +12 1028.1 1026.5
12 17.09 С 3 15 км н/о +13.5 +5.8 60 +12 +12 1028.3 1026.7 0.0
13 17.09 СЗ 4 26 км н/о +12.9 +5.6 61 +11 +11 1028.7 1027.1
14 17.09 СЗ 4 19 км н/о +13.3 +6.6 64 +12 +12 1028.3 1026.7
15 17.09 З 4 23 км н/о +12.7 +6.9 68 +11 +11 1028.5 1026.9
16 17.09 З 3 27 км н/о +12.7 +6.9 68 +11 +11 1028.3 1026.7
17 17.09 З 3 19 км н/о +12.7 +7.0 68 +12 +12 1028.1 1026.5
18 17.09 З 2 25 км в посл. час дождь н/о +12.4 +7.8 74 +12 +12 1028.1 1026.5 +13.9 0.0
19 17.09 ЮЗ 1 20 км н/о +11.8 +7.9 77 +12 +12 1028.1 1026.5
20 17.09 Ю 2 20 км н/о +11.5 +8.5 82 +11 +11 1028.4 1026.8
21 17.09 Ю 3 19 км н/о +11.8 +9.3 85 +10 +10 1028.3 1026.7
22 17.09 Ю 3 18 км н/о +11.8 +9.6 86 +10 +10 1028.4 1026.8
23 17.09 Ю 4 22 км н/о +12.4 +10.3 87 +11 +11 1028.2 1026.6
00 18.09 ЮЗ 4 17 км н/о +12.6 +10.7 88 +11 +11 1027.9 1026.3
01 18.09 ЮЗ 4 30 км н/о +12.6 +10.2 85 +11 +11 1027.7 1026.1
02 18.09 ЮЗ 5 45 км н/о +12.7 +10.1 84 +11 +11 1027.6 1026.0
03 18.09 З 7 9000 м дым н/о +12.2 +10.2 88 +9 +9 1027.2 1025.6
04 18.09 ЮЗ 6 18 км н/о +12.8 +10.9 88 +10 +10 1027.2 1025.6
05 18.09 ЮЗ 6 1900 м дымка н/о +12.1 +11.4 95 +9 +9 1027.2 1025.6
06 18.09 З 7 2600 м в посл. час дождь н/о +12.2 +11.8 97 +9 +9 1027.3 1025.7 +11.4 1
07 18.09 З 7 13 км дымка н/о +12.5 +12.1 97 +10 +10 1027.6 1026.0
08 18.09 З 7 9000 м дымка н/о +13.0 +12.7 98 +10 +10 1027.8 1026.2
09 18.09 З 7 12 км н/о +13.4 +13.1 98 +11 +11 1028.1 1026.6
10 18.09 З 7 10 км дымка н/о +13.9 +13.5 97 +11 +11 1028.4 1026.8
11 18.09 З 8 7000 м дымка н/о +13.8 +13.4 97 +11 +11 1028.7 1027.2
12 18.09 З 8 4700 м дымка н/о +14.5 +13.8 96 +12 +12 1029.0 1027.4 0.2
13 18.09 З 7 35 км н/о +15.1 +13.7 91 +13 +13 1029.1 1027.6
14 18.09 З 7 26 км н/о +14.8 +13.4 91 +13 +13 1029.3 1027.7
15 18.09 З 7 8000 м дым н/о +14.1 +13.1 94 +12 +12 1029.4 1027.8
16 18.09 З 5 20 км н/о +14.1 +13.4 96 +12 +12 1029.3 1027.8
17 18.09 З 5 11 км дымка н/о +13.6 +13.1 97 +12 +12 1029.4 1027.8
18 18.09 З 4 18 км н/о +13.9 +13.3 96 +12 +12 1029.7 1028.1 +15.3 0.2
19 18.09 З 3 28 км н/о +13.4 +12.7 96 +12 +12 1030.0 1028.4
20 18.09 З 4 24 км н/о +13.0 +12.5 97 +11 +11 1030.3 1028.7
21 18.09 З 3 24 км н/о +12.6 +12.2 97 +11 +11 1030.4 1028.8
22 18.09 З 3 40 км н/о +12.3 +12.0 98 +11 +11 1030.6 1029.0
23 18.09 ЮЗ 2 45 км н/о +12.2 +11.8 97 +11 +11 1030.7 1029.1
00 19.09 ЮЗ 2 35 км н/о +12.4 +12.1 98 +11 +11 1030.6 1029.0
01 19.09 ЮЗ 3 16 км н/о +12.3 +11.9 97 +11 +11 1030.5 1028.9
02 19.09 ЮЗ 3 10 км дымка н/о +12.0 +11.6 97 +10 +10 1030.2 1028.6
03 19.09 ЮЗ 2 10 км дымка н/о +11.5 +11.1 97 +11 +11 1030.0 1028.4
04 19.09 ЮЗ 3 50 км н/о +11.3 +11.0 98 +9 +9 1029.9 1028.3
05 19.09 ЮЗ 3 4800 м дымка н/о +11.2 +10.8 97 +9 +9 1029.9 1028.3
06 19.09 ЮЗ 2 45 км н/о +11.1 +10.7 97 +10 +10 1030.0 1028.3 +11.1 0.2
07 19.09 ЮЗ 1 5000 м дымка н/о +11.8 +11.5 98 +11 +11 1030.0 1028.4
08 19.09 ЮЗ 2 35 км н/о +12.3 +11.9 97 +11 +11 1030.2 1028.6
09 19.09 ЮЗ 3 5000 м дымка н/о +12.7 +12.2 97 +11 +11 1030.4 1028.8
10 19.09 ЮЗ 2 50 км н/о +13.0 +12.3 96 +12 +12 1030.5 1028.9
11 19.09 ЮЗ 3 45 км н/о +13.3 +11.6 89 +12 +12 1030.5 1028.9
12 19.09 ЮЗ 3 5000 м дым н/о +13.3 +11.9 91 +12 +12 1030.4 1028.8 0.2
13 19.09 Ю 4 30 км в посл. час дождь н/о +13.7 +11.9 89 +12 +12 1030.3 1028.7
14 19.09 Ю 4 40 км н/о +15.0 +11.6 80 +14 +14 1029.9 1028.3
15 19.09 Ю 4 29 км н/о +14.1 +10.8 81 +13 +13 1029.7 1028.1
16 19.09 Ю 4 40 км н/о +14.3 +11.4 83 +13 +13 1029.2 1027.6
17 19.09 Ю 4 22 км н/о +13.9 +11.5 85 +12 +12 1028.8 1027.2
18 19.09 ЮВ 5 29 км н/о +13.2 +11.4 89 +11 +11 1028.5 1026.9 +15.1 0.2
19 19.09 ЮВ 5 22 км н/о +12.9 +11.6 92 +11 +11 1028.5 1026.9
20 19.09 ЮВ 5 29 км н/о +12.9 +11.8 93 +11 +11 1028.5 1026.9
21 19.09 ЮВ 4 19 км н/о +12.9 +11.9 94 +11 +11 1028.3 1026.7
22 19.09 ЮВ 5 15 км н/о +13.1 +12.2 94 +11 +11 1028.1 1026.5
23 19.09 ЮВ 5 17 км н/о +13.3 +12.3 94 +11 +11 1027.9 1026.3
00 20.09 ЮВ 5 19 км н/о +13.3 +12.1 92 +11 +11 1027.1 1025.5
01 20.09 ЮВ 5 27 км н/о +13.3 +11.9 91 +11 +11 1026.7 1025.1

 

Местоположение метеостанции Тири (Великобритания): широта 56.50 долгота -6.88 высота над уровнем моря 12 м.

В архиве по умолчанию представлена погода на Тири за последнюю неделю. Архивные данные за месяц целиком и за предыдущие месяцы, начиная с января 2011 года, Вы можете получить, выбрав интересующий диапазон дат из раскрывающегося списка и нажав кнопку "Ввод!".


*Определитесь, кто Вы:
робот инопланетянин человек

Внимание! Время в таблицах - всемирное. Для получения местного времени необходимо прибавить поправку, которая равна 0 ч.

Смотрите также архив погоды в соседних городах и на ближайших метеорологических станциях:

Погода на Южном Уисте (Великобритания) (97 км)
Погода в Порт-Эллене (Великобритания) (99 км)
Погода на Скае (Великобритания) (106 км)
Погода на Горе Аонах Мор (Великобритания) (122 км)
Погода на Перевале Bealach Na Ba (Великобритания) (126 км)
Погода в Малин Хед (Ирландия) (129 км)
Погода на Станции Tulloch Bridge (Великобритания) (139 км)
Погода в Макрайханише (Великобритания) (140 км)
Погода на Магиллигане (Великобритания) (150 км)
Погода в Баллипатрик Форест (Великобритания) (153 км)

Пояснения к столбцам:

Ветер - указаны скорость ветра в м/с - средняя за 10 мин, порывы в срок и между сроками (в фигурных скобках) и направление, откуда дует ветер: С - северный, СВ - северо-восточный, В - восточный, ЮВ - юго-восточный, Ю - южный, ЮЗ - юго-западный, З - западный, СЗ - северо-западный.
Видимость - горизонтальная дальность видимости в метрах или километрах. При видимости от 1 до 10 км при отсутствии осадков обычно наблюдается дымка, при ухудшении видимости до 1 км и менее - туман. В сухую погоду видимость может ухудшаться дымом, пылью или мглою.
Явления - указаны атмосферные явления, наблюдавшиеся в срок или в последний час перед сроком; фигурными скобками обозначены явления, наблюдавшиеся между сроками (за 1-3 часа до срока); квадратными скобками обозначены град или гололедные отложения с указанием их диаметра в мм.
Облачность - указаны через наклонную черту общая и нижняя облачность в баллах и высота нижней границы облаков в метрах; квадратными скобками обозначены формы облаков: Ci - перистые, Cs - перисто-слоистые, Cc - перисто-кучевые, Ac - высококучевые, As - высокослоистые, Sc - слоисто-кучевые, Ns - слоисто-дождевые, Cu - кучевые, Cb - кучево-дождевые. Подробнее классификацию облаков см. в Атласе облаков (PDF).
T - Температура воздуха - температура, измеренная на высоте 2 м над землей.
Td - Температура точки росы - температура, при понижении до которой содержащийся в воздухе водяной пар достигнет насыщения.
f - Относительная влажность воздуха - влажноcть воздуха, измеренная на высоте 2 м над землей.
Te - Эффективная температура - температура, которую ощущает одетый по сезону человек в тени. Характеристика душности погоды. При расчете учитывается влияние влажности воздуха и скорости ветра на теплоощущения человека.
Tes - Эффективная температура на солнце - температура, которую ощущает человек, с поправкой на солнечный нагрев. Характеристика знойности погоды. Зависит от высоты солнца над горизонтом, облачности и скорости ветра. Ночью, в пасмурную погоду, а также при ветре 12 м/с и более поправка равна нулю.
P - Атмосферное давление - приведенное к уровню моря атмосферное давление.
Po - Атмосферное давление - измеренное на уровне метеостанции атмосферное давление.
Tmin - Минимальная температура - минимум температуры воздуха на высоте 2 м над землей.
Tmax - Максимальная температура - максимум температуры воздуха на высоте 2 м над землей.
R - Количество осадков - Количество выпавших осадков за период времени, мм. При наведении курсора мыши на число - период времени, за который выпало указанное количество осадков.
R24 - Количество осадков - Количество выпавших осадков за 24 часа, мм.
S - Снежный покров - Высота снежного покрова, см. При наведении курсора мыши на число - состояние снежного покрова и степень покрытия местности в баллах.